Location: El Mouella
(16.4949°N, 9.1594°W)
Time: 00:50:36
(UTC+00:00)

Cosmos 909 Rocket - Pass Details

Date: 02 June 2020
Orbit: 987 x 2092 km, 65.9° (Epoch: 13 July)

Event Time Altitude Azimuth Distance (km) Brightness Sun altitude
Rises 21:16:03 0° 334° (NNW) 3,965 8.1 -27.8°
Reaches altitude 10° 21:18:51 10° 331° (NNW) 2,907 7.3 -28.3°
Maximum altitude 21:25:23 68° 250° (WSW) 1,063 4.1 -29.5°
Enters shadow 21:26:04 63° 212° (SSW) 1,095 4.1 -29.7°
